N087AC KSAN-KLAS

Flight info

Callsign N087AC
Flight time 0h 47m
Altitude 29000
Route PADRZ2 CHKNN SEBBY YELAH MISEN RNDRZ4
Aircraft C750/M-SBDE3FGHRWXY/S

Departure

Time 2026-05-04 22:07
Airport San Diego International Airport (KSAN)

Arrival

Time 2026-05-04 22:54
Airport Harry Reid International Airport (KLAS)
Time Latitude Longitude Altitude Speed Heading
2026-05-04 21:19 32.73432 -117.17963 30 ft 0 kts 302°
2026-05-04 21:57 32.73422 -117.17942 20 ft 4 kts 283°
2026-05-04 21:57 32.73421 -117.17925 29 ft 0 kts 217°
2026-05-04 22:01 32.73403 -117.17932 24 ft 4 kts 198°
2026-05-04 22:01 32.73374 -117.17943 27 ft 4 kts 198°
2026-05-04 22:02 32.73346 -117.17954 30 ft 4 kts 194°
2026-05-04 22:02 32.73311 -117.17965 26 ft 6 kts 196°
2026-05-04 22:02 32.73263 -117.17982 24 ft 8 kts 192°
2026-05-04 22:02 32.73222 -117.17938 22 ft 9 kts 106°
2026-05-04 22:03 32.73205 -117.17870 23 ft 8 kts 105°
2026-05-04 22:03 32.73192 -117.17816 24 ft 6 kts 106°
2026-05-04 22:03 32.73182 -117.17776 25 ft 4 kts 106°
2026-05-04 22:03 32.73174 -117.17744 24 ft 4 kts 106°
2026-05-04 22:04 32.73167 -117.17715 26 ft 3 kts 106°
2026-05-04 22:04 32.73156 -117.17691 24 ft 3 kts 134°
2026-05-04 22:04 32.73141 -117.17676 24 ft 2 kts 113°
2026-05-04 22:04 32.73140 -117.17642 24 ft 6 kts 92°
2026-05-04 22:05 32.73134 -117.17587 23 ft 6 kts 119°
2026-05-04 22:05 32.73101 -117.17556 23 ft 6 kts 144°
2026-05-04 22:05 32.73071 -117.17533 24 ft 4 kts 157°
2026-05-04 22:05 32.73049 -117.17528 25 ft 3 kts 173°
2026-05-04 22:06 32.73025 -117.17537 25 ft 5 kts 220°
2026-05-04 22:06 32.73017 -117.17571 24 ft 9 kts 274°
2026-05-04 22:06 32.73048 -117.17699 23 ft 38 kts 286°
2026-05-04 22:06 32.73223 -117.18430 27 ft 134 kts 286°
2026-05-04 22:07 32.73527 -117.19641 275 ft 161 kts 288°
2026-05-04 22:07 32.73856 -117.20982 825 ft 178 kts 288°
2026-05-04 22:07 32.74421 -117.22349 1206 ft 175 kts 296°
2026-05-04 22:07 32.75062 -117.23551 1455 ft 180 kts 303°
2026-05-04 22:08 32.75877 -117.24877 1624 ft 225 kts 304°
2026-05-04 22:08 32.76942 -117.26533 1560 ft 273 kts 306°
2026-05-04 22:08 32.78025 -117.28298 1905 ft 257 kts 302°
2026-05-04 22:08 32.78977 -117.30076 3006 ft 247 kts 300°
2026-05-04 22:09 32.79915 -117.31791 4187 ft 250 kts 304°
2026-05-04 22:09 32.81012 -117.33424 5228 ft 253 kts 307°
2026-05-04 22:09 32.82080 -117.35098 6359 ft 255 kts 305°
2026-05-04 22:09 32.83157 -117.36801 7368 ft 260 kts 305°
2026-05-04 22:10 32.84270 -117.38525 8458 ft 265 kts 304°
2026-05-04 22:10 32.85403 -117.40275 9535 ft 270 kts 303°
2026-05-04 22:10 32.86563 -117.42078 10334 ft 281 kts 303°
2026-05-04 22:10 32.87803 -117.44016 10603 ft 308 kts 303°
2026-05-04 22:11 32.89165 -117.46134 10753 ft 335 kts 303°
2026-05-04 22:11 32.90606 -117.48359 11463 ft 339 kts 303°
2026-05-04 22:11 32.92047 -117.50588 12297 ft 342 kts 303°
2026-05-04 22:11 32.93480 -117.52826 13050 ft 346 kts 302°
2026-05-04 22:12 32.94943 -117.55112 13816 ft 349 kts 302°
2026-05-04 22:12 32.96429 -117.57426 14482 ft 353 kts 302°
2026-05-04 22:12 32.97922 -117.59751 15159 ft 355 kts 301°
2026-05-04 22:12 32.99425 -117.62100 15871 ft 358 kts 301°
2026-05-04 22:13 33.00941 -117.64469 16578 ft 361 kts 301°
2026-05-04 22:13 33.02474 -117.66867 17243 ft 366 kts 301°
2026-05-04 22:13 33.04022 -117.69285 17995 ft 369 kts 301°
2026-05-04 22:13 33.05591 -117.71727 18687 ft 373 kts 301°
2026-05-04 22:14 33.07407 -117.74002 19345 ft 384 kts 310°
2026-05-04 22:14 33.09464 -117.76079 20042 ft 388 kts 311°
2026-05-04 22:14 33.11527 -117.78173 20760 ft 390 kts 310°
2026-05-04 22:14 33.13592 -117.80295 21460 ft 394 kts 310°
2026-05-04 22:15 33.15684 -117.82428 22161 ft 397 kts 309°
2026-05-04 22:15 33.17801 -117.84574 22856 ft 401 kts 309°
2026-05-04 22:15 33.19939 -117.86733 23547 ft 405 kts 309°
2026-05-04 22:15 33.22136 -117.88874 24079 ft 410 kts 309°
2026-05-04 22:16 33.24359 -117.91038 24602 ft 414 kts 309°
2026-05-04 22:16 33.26601 -117.93226 25123 ft 418 kts 308°
2026-05-04 22:16 33.28866 -117.95441 25642 ft 422 kts 308°
2026-05-04 22:16 33.31156 -117.97678 26156 ft 427 kts 308°
2026-05-04 22:17 33.33466 -117.99935 26675 ft 431 kts 307°
2026-05-04 22:17 33.35799 -118.02218 27185 ft 435 kts 307°
2026-05-04 22:17 33.38150 -118.04522 27707 ft 439 kts 307°
2026-05-04 22:17 33.40521 -118.06844 28320 ft 442 kts 306°
2026-05-04 22:18 33.42886 -118.09164 28764 ft 447 kts 306°
2026-05-04 22:18 33.45298 -118.11532 29048 ft 454 kts 306°
2026-05-04 22:18 33.47771 -118.13979 29060 ft 469 kts 306°
2026-05-04 22:18 33.50332 -118.16502 29070 ft 484 kts 307°
2026-05-04 22:19 33.52982 -118.19095 29069 ft 497 kts 307°
2026-05-04 22:19 33.58674 -118.24161 29041 ft 531 kts 318°
2026-05-04 22:19 33.62120 -118.25976 29037 ft 553 kts 329°
2026-05-04 22:20 33.65932 -118.27055 29032 ft 575 kts 341°
2026-05-04 22:20 33.69996 -118.27258 29024 ft 595 kts 353°
2026-05-04 22:20 33.74153 -118.26476 29017 ft 613 kts
2026-05-04 22:20 33.78183 -118.24662 29043 ft 627 kts 21°
2026-05-04 22:21 33.81889 -118.21837 29039 ft 635 kts 35°
2026-05-04 22:21 33.85032 -118.18130 29035 ft 633 kts 50°
2026-05-04 22:21 33.87662 -118.13894 29070 ft 633 kts 55°
2026-05-04 22:22 33.92726 -118.05194 29033 ft 635 kts 56°
2026-05-04 22:22 33.97913 -117.96522 29049 ft 638 kts 55°
2026-05-04 22:23 34.03012 -117.87804 29049 ft 637 kts 56°
2026-05-04 22:23 34.08156 -117.79099 29046 ft 637 kts 55°
2026-05-04 22:24 34.13725 -117.70778 29034 ft 638 kts 50°
2026-05-04 22:24 34.19363 -117.62510 29054 ft 636 kts 51°
2026-05-04 22:25 34.24968 -117.54304 29009 ft 630 kts 50°
2026-05-04 22:25 34.30519 -117.46150 28974 ft 633 kts 51°
2026-05-04 22:26 34.36126 -117.37886 28981 ft 637 kts 50°
2026-05-04 22:26 34.41760 -117.29582 28959 ft 637 kts 51°
2026-05-04 22:27 34.47367 -117.21278 28984 ft 637 kts 50°
2026-05-04 22:27 34.52975 -117.12970 28954 ft 635 kts 50°
2026-05-04 22:28 34.58555 -117.04668 28933 ft 634 kts 50°
2026-05-04 22:28 34.64115 -116.96393 28924 ft 630 kts 50°
2026-05-04 22:29 34.69642 -116.88135 28924 ft 631 kts 51°
2026-05-04 22:29 34.75182 -116.79844 28935 ft 631 kts 50°
2026-05-04 22:30 34.80703 -116.71563 28941 ft 629 kts 50°
2026-05-04 22:30 34.86446 -116.63631 28926 ft 629 kts 41°
2026-05-04 22:31 34.93225 -116.56933 28927 ft 627 kts 35°
2026-05-04 22:31 35.00015 -116.50316 28896 ft 625 kts 36°
2026-05-04 22:32 35.06832 -116.43709 28865 ft 626 kts 35°
2026-05-04 22:32 35.13253 -116.36499 28844 ft 627 kts 45°
2026-05-04 22:32 35.16166 -116.32694 28138 ft 600 kts 45°
2026-05-04 22:33 35.18970 -116.29082 27361 ft 571 kts 45°
2026-05-04 22:33 35.21651 -116.25646 26601 ft 545 kts 45°
2026-05-04 22:33 35.24149 -116.22290 25907 ft 522 kts 47°
2026-05-04 22:33 35.26511 -116.19013 25234 ft 508 kts 47°
2026-05-04 22:34 35.28854 -116.15820 24571 ft 499 kts 46°
2026-05-04 22:34 35.31159 -116.12697 23925 ft 490 kts 46°
2026-05-04 22:34 35.33404 -116.09613 23265 ft 481 kts 46°
2026-05-04 22:34 35.35598 -116.06576 22600 ft 471 kts 47°
2026-05-04 22:35 35.37767 -116.03593 21985 ft 467 kts 46°
2026-05-04 22:35 35.39931 -116.00631 21374 ft 464 kts 47°
2026-05-04 22:35 35.42047 -115.97720 20770 ft 460 kts 47°
2026-05-04 22:35 35.44156 -115.94803 20153 ft 456 kts 47°
2026-05-04 22:36 35.46247 -115.91916 19565 ft 449 kts 47°
2026-05-04 22:36 35.48311 -115.89072 18967 ft 441 kts 48°
2026-05-04 22:36 35.50301 -115.86326 18412 ft 421 kts 48°
2026-05-04 22:36 35.52202 -115.83695 17830 ft 403 kts 48°
2026-05-04 22:37 35.54019 -115.81178 17302 ft 386 kts 48°
2026-05-04 22:37 35.55763 -115.78763 16803 ft 371 kts 48°
2026-05-04 22:37 35.57445 -115.76433 16324 ft 358 kts 48°
2026-05-04 22:37 35.59075 -115.74173 16002 ft 349 kts 49°
2026-05-04 22:38 35.60671 -115.71988 15982 ft 344 kts 47°
2026-05-04 22:38 35.62317 -115.69795 15994 ft 351 kts 47°
2026-05-04 22:38 35.63974 -115.67575 15998 ft 354 kts 47°
2026-05-04 22:38 35.65630 -115.65327 16004 ft 355 kts 48°
2026-05-04 22:39 35.67287 -115.63077 15990 ft 355 kts 47°
2026-05-04 22:39 35.68950 -115.60832 15993 ft 357 kts 47°
2026-05-04 22:39 35.70622 -115.58573 15995 ft 357 kts 47°
2026-05-04 22:39 35.72297 -115.56326 15996 ft 356 kts 46°
2026-05-04 22:40 35.74227 -115.54484 15453 ft 349 kts 30°
2026-05-04 22:40 35.76349 -115.53045 14739 ft 346 kts 26°
2026-05-04 22:40 35.78463 -115.51679 14088 ft 341 kts 27°
2026-05-04 22:40 35.80508 -115.50235 13476 ft 336 kts 30°
2026-05-04 22:41 35.82511 -115.48779 12961 ft 333 kts 29°
2026-05-04 22:41 35.84518 -115.47375 12875 ft 329 kts 30°
2026-05-04 22:41 35.86504 -115.45998 12986 ft 330 kts 31°
2026-05-04 22:41 35.88502 -115.44593 12988 ft 330 kts 31°
2026-05-04 22:42 35.90496 -115.43185 12990 ft 330 kts 31°
2026-05-04 22:42 35.92484 -115.41792 12987 ft 329 kts 31°
2026-05-04 22:42 35.94455 -115.40425 12963 ft 327 kts 31°
2026-05-04 22:42 35.96413 -115.39064 12311 ft 323 kts 31°
2026-05-04 22:43 35.98372 -115.37691 11553 ft 322 kts 31°
2026-05-04 22:43 36.00110 -115.36024 10825 ft 320 kts 53°
2026-05-04 22:43 36.01146 -115.33694 10804 ft 299 kts 75°
2026-05-04 22:43 36.01412 -115.31179 10918 ft 296 kts 95°
2026-05-04 22:44 36.01304 -115.28656 10907 ft 289 kts 98°
2026-05-04 22:44 36.01181 -115.26225 10679 ft 273 kts 98°
2026-05-04 22:44 36.01071 -115.23989 10672 ft 250 kts 98°
2026-05-04 22:44 36.00964 -115.21876 10306 ft 246 kts 99°
2026-05-04 22:45 36.00853 -115.19761 9850 ft 246 kts 98°
2026-05-04 22:45 36.00646 -115.15582 9008 ft 246 kts 98°
2026-05-04 22:45 36.00540 -115.13494 9017 ft 242 kts 98°
2026-05-04 22:46 36.00436 -115.11425 9020 ft 241 kts 98°
2026-05-04 22:46 36.00331 -115.09363 9027 ft 241 kts 98°
2026-05-04 22:46 36.00223 -115.07269 8864 ft 247 kts 98°
2026-05-04 22:46 36.00114 -115.05139 8561 ft 248 kts 97°
2026-05-04 22:47 36.00007 -115.03019 8243 ft 245 kts 97°
2026-05-04 22:47 35.99932 -115.00945 7969 ft 235 kts 92°
2026-05-04 22:47 35.99954 -114.99007 7941 ft 225 kts 95°
2026-05-04 22:47 35.99884 -114.97098 7707 ft 222 kts 98°
2026-05-04 22:48 35.99719 -114.95203 7347 ft 221 kts 100°
2026-05-04 22:48 36.00024 -114.93321 6872 ft 232 kts 66°
2026-05-04 22:48 36.00975 -114.91747 6534 ft 228 kts 44°
2026-05-04 22:48 36.02353 -114.90766 6045 ft 229 kts 19°
2026-05-04 22:49 36.03858 -114.90536 5796 ft 211 kts 355°
2026-05-04 22:49 36.05235 -114.90993 5547 ft 201 kts 333°
2026-05-04 22:49 36.06332 -114.91959 4895 ft 192 kts 312°
2026-05-04 22:49 36.07030 -114.93261 4612 ft 175 kts 292°
2026-05-04 22:50 36.07354 -114.94734 4630 ft 180 kts 274°
2026-05-04 22:50 36.07362 -114.96261 4482 ft 180 kts 265°
2026-05-04 22:50 36.07357 -114.97288 4357 ft 180 kts 267°
2026-05-04 22:50 36.07366 -114.99353 4060 ft 178 kts 268°
2026-05-04 22:51 36.07368 -115.00369 3920 ft 181 kts 266°
2026-05-04 22:51 36.07367 -115.01929 3694 ft 179 kts 268°
2026-05-04 22:51 36.07368 -115.03955 3407 ft 176 kts 269°
2026-05-04 22:51 36.07369 -115.05466 3211 ft 176 kts 268°
2026-05-04 22:52 36.07370 -115.06485 3089 ft 175 kts 266°
2026-05-04 22:52 36.07373 -115.07953 2879 ft 158 kts 266°
2026-05-04 22:52 36.07391 -115.09196 2566 ft 137 kts 264°
2026-05-04 22:52 36.07398 -115.10307 2419 ft 118 kts 258°
2026-05-04 22:53 36.07366 -115.11280 2305 ft 111 kts 257°
2026-05-04 22:53 36.07362 -115.12226 2247 ft 113 kts 260°
2026-05-04 22:53 36.07367 -115.13207 2140 ft 115 kts 261°
2026-05-04 22:53 36.07360 -115.14149 2123 ft 99 kts 265°
2026-05-04 22:54 36.07363 -115.14885 2120 ft 63 kts 271°
2026-05-04 22:54 36.07377 -115.15248 2116 ft 27 kts 281°
2026-05-04 22:54 36.07422 -115.15406 2118 ft 15 kts 298°
2026-05-04 22:54 36.07468 -115.15505 2118 ft 4 kts 300°
2026-05-04 22:55 36.07481 -115.15535 2119 ft 4 kts 296°
2026-05-04 22:55 36.07494 -115.15579 2119 ft 7 kts 288°
2026-05-04 22:55 36.07501 -115.15652 2119 ft 10 kts 271°
2026-05-04 22:55 36.07502 -115.15757 2120 ft 13 kts 270°
2026-05-04 22:56 36.07500 -115.15855 2122 ft 1 kts 268°
2026-05-04 22:56 36.07500 -115.15876 2122 ft 4 kts 268°
2026-05-04 22:56 36.07499 -115.15929 2122 ft 8 kts 268°
2026-05-04 22:56 36.07500 -115.16012 2122 ft 12 kts 272°
2026-05-04 22:57 36.07502 -115.16107 2122 ft 7 kts 268°
2026-05-04 22:57 36.07501 -115.16180 2123 ft 10 kts 270°
2026-05-04 22:57 36.07500 -115.16275 2123 ft 7 kts 269°
2026-05-04 22:57 36.07500 -115.16355 2123 ft 7 kts 271°
2026-05-04 22:58 36.07501 -115.16409 2123 ft 6 kts 271°
2026-05-04 22:58 36.07499 -115.16464 2122 ft 6 kts 259°
2026-05-04 22:58 36.07473 -115.16499 2124 ft 6 kts 202°
2026-05-04 22:58 36.07429 -115.16522 2125 ft 8 kts 203°
2026-05-04 22:59 36.07390 -115.16565 2123 ft 8 kts 245°
2026-05-04 22:59 36.07396 -115.16635 2120 ft 8 kts 295°
2026-05-04 22:59 36.07398 -115.16642 2120 ft 0 kts 295°
2026-05-04 23:00 36.07403 -115.16655 2121 ft 3 kts 295°
2026-05-04 23:00 36.07415 -115.16687 2120 ft 5 kts 295°
2026-05-04 23:01 36.07429 -115.16722 2118 ft 4 kts 295°
2026-05-04 23:01 36.07441 -115.16754 2113 ft 5 kts 295°
2026-05-04 23:01 36.07459 -115.16802 2116 ft 7 kts 295°
2026-05-04 23:01 36.07477 -115.16851 2120 ft 5 kts 295°
2026-05-04 23:02 36.07496 -115.16900 2120 ft 10 kts 295°
2026-05-04 23:02 36.07530 -115.16991 2118 ft 12 kts 295°
2026-05-04 23:02 36.07562 -115.17076 2120 ft 9 kts 294°
2026-05-04 23:02 36.07603 -115.17113 2122 ft 6 kts 358°
2026-05-04 23:03 36.07642 -115.17112 2125 ft 6 kts
2026-05-04 23:03 36.07685 -115.17112 2123 ft 7 kts
2026-05-04 23:03 36.07738 -115.17112 2123 ft 8 kts
2026-05-04 23:03 36.07793 -115.17113 2124 ft 7 kts
2026-05-04 23:04 36.07831 -115.17106 2125 ft 5 kts 20°
2026-05-04 23:04 36.07863 -115.17088 2127 ft 5 kts 24°
2026-05-04 23:04 36.07910 -115.17062 2129 ft 9 kts 26°
2026-05-04 23:04 36.07975 -115.17022 2129 ft 12 kts 26°
2026-05-04 23:05 36.08052 -115.16978 2127 ft 13 kts 25°
2026-05-04 23:05 36.08131 -115.16933 2127 ft 12 kts 24°
2026-05-04 23:05 36.08204 -115.16893 2127 ft 11 kts 24°
2026-05-04 23:05 36.08278 -115.16851 2125 ft 12 kts 25°
2026-05-04 23:06 36.08364 -115.16802 2122 ft 14 kts 24°
2026-05-04 23:06 36.08453 -115.16752 2122 ft 14 kts 24°
2026-05-04 23:06 36.08536 -115.16706 2121 ft 13 kts 25°
2026-05-04 23:06 36.08616 -115.16657 2122 ft 13 kts 25°
2026-05-04 23:07 36.08690 -115.16615 2122 ft 10 kts 25°
2026-05-04 23:07 36.08747 -115.16582 2125 ft 8 kts 25°
2026-05-04 23:07 36.08791 -115.16557 2125 ft 7 kts 25°
2026-05-04 23:07 36.08832 -115.16533 2125 ft 7 kts 25°
2026-05-04 23:08 36.08876 -115.16507 2124 ft 7 kts 25°
2026-05-04 23:08 36.08924 -115.16479 2122 ft 7 kts 25°
2026-05-04 23:08 36.08969 -115.16453 2123 ft 7 kts 26°
2026-05-04 23:08 36.09012 -115.16428 2122 ft 7 kts 24°
2026-05-04 23:09 36.09058 -115.16402 2123 ft 8 kts 23°
2026-05-04 23:09 36.09115 -115.16388 2121 ft 9 kts 332°
2026-05-04 23:09 36.09131 -115.16442 2120 ft 4 kts 280°
2026-05-04 23:09 36.09137 -115.16470 2120 ft 2 kts 298°
2026-05-04 23:10 36.09152 -115.16483 2121 ft 4 kts 328°
2026-05-04 23:10 36.09177 -115.16504 2120 ft 3 kts 309°
2026-05-04 23:10 36.09177 -115.16515 2123 ft 1 kts 266°
2026-05-04 23:10 36.09173 -115.16532 2121 ft 3 kts 254°
2026-05-04 23:11 36.09172 -115.16541 2122 ft 0 kts 258°